JES3634 SABE-SANT

Flight info

Callsign JES3634
Flight time 1h 53m
Altitude 36000
Route BIVAM4B BIVAM UW8 ERE UT680 ANGEN ANGEN1U
Aircraft A320/M-SDE3FGHIRWY/LB1

Departure

Time 2026-04-21 15:15
Airport Aeroparque Jorge Newbery (SABE)

Arrival

Time 2026-04-21 17:08
Airport Teniente Benjamín Matienzo International Airport (SANT)
Time Latitude Longitude Altitude Speed Heading
2026-04-21 14:46 -34.55528 -58.41714 26 ft 0 kts 33°
2026-04-21 15:06 -34.55530 -58.41715 25 ft 2 kts 33°
2026-04-21 15:06 -34.55552 -58.41733 28 ft 4 kts 36°
2026-04-21 15:07 -34.55574 -58.41752 27 ft 4 kts 37°
2026-04-21 15:07 -34.55595 -58.41771 29 ft 4 kts 41°
2026-04-21 15:07 -34.55609 -58.41796 27 ft 4 kts 81°
2026-04-21 15:07 -34.55609 -58.41819 29 ft 0 kts 105°
2026-04-21 15:10 -34.55609 -58.41817 29 ft 2 kts 105°
2026-04-21 15:10 -34.55619 -58.41783 26 ft 7 kts 114°
2026-04-21 15:10 -34.55656 -58.41716 29 ft 12 kts 124°
2026-04-21 15:10 -34.55703 -58.41631 26 ft 12 kts 123°
2026-04-21 15:11 -34.55742 -58.41578 27 ft 8 kts 163°
2026-04-21 15:11 -34.55785 -58.41632 25 ft 12 kts 277°
2026-04-21 15:11 -34.55739 -58.41743 27 ft 17 kts 297°
2026-04-21 15:11 -34.55670 -58.41875 28 ft 19 kts 304°
2026-04-21 15:12 -34.55592 -58.42013 31 ft 19 kts 304°
2026-04-21 15:12 -34.55519 -58.42135 29 ft 17 kts 308°
2026-04-21 15:12 -34.55436 -58.42266 28 ft 19 kts 307°
2026-04-21 15:12 -34.55382 -58.42354 29 ft 15 kts 305°
2026-04-21 15:13 -34.55374 -58.42371 28 ft 2 kts 298°
2026-04-21 15:13 -34.55363 -58.42405 26 ft 7 kts 285°
2026-04-21 15:13 -34.55368 -58.42486 25 ft 12 kts 242°
2026-04-21 15:13 -34.55411 -58.42500 31 ft 2 kts 149°
2026-04-21 15:14 -34.55420 -58.42484 26 ft 9 kts 124°
2026-04-21 15:14 -34.55584 -58.42186 27 ft 76 kts 123°
2026-04-21 15:14 -34.55981 -58.41472 27 ft 125 kts 123°
2026-04-21 15:14 -34.56524 -58.40497 268 ft 143 kts 120°
2026-04-21 15:15 -34.57052 -58.39465 802 ft 145 kts 119°
2026-04-21 15:15 -34.57572 -58.38398 1232 ft 154 kts 114°
2026-04-21 15:15 -34.57942 -58.37072 1347 ft 179 kts 99°
2026-04-21 15:15 -34.57988 -58.35481 1646 ft 198 kts 83°
2026-04-21 15:16 -34.57651 -58.33776 1935 ft 221 kts 66°
2026-04-21 15:16 -34.56789 -58.32128 2373 ft 244 kts 46°
2026-04-21 15:16 -34.55405 -58.30840 3099 ft 257 kts 29°
2026-04-21 15:16 -34.53818 -58.29797 4150 ft 261 kts 19°
2026-04-21 15:17 -34.52024 -58.29500 5060 ft 266 kts 352°
2026-04-21 15:17 -34.50284 -58.30225 5968 ft 266 kts 325°
2026-04-21 15:17 -34.48904 -58.31719 6906 ft 268 kts 313°
2026-04-21 15:17 -34.47595 -58.33331 7880 ft 268 kts 313°
2026-04-21 15:18 -34.46285 -58.34945 8827 ft 269 kts 313°
2026-04-21 15:18 -34.44969 -58.36563 9752 ft 270 kts 313°
2026-04-21 15:18 -34.43641 -58.38191 10435 ft 279 kts 313°
2026-04-21 15:18 -34.42222 -58.39931 10712 ft 302 kts 313°
2026-04-21 15:19 -34.40705 -58.41788 11124 ft 316 kts 313°
2026-04-21 15:19 -34.39142 -58.43695 11814 ft 321 kts 313°
2026-04-21 15:19 -34.37558 -58.45625 12550 ft 324 kts 313°
2026-04-21 15:19 -34.35960 -58.47569 13253 ft 327 kts 313°
2026-04-21 15:20 -34.34348 -58.49528 13930 ft 330 kts 313°
2026-04-21 15:20 -34.32747 -58.51471 14526 ft 332 kts 313°
2026-04-21 15:20 -34.31087 -58.53485 15127 ft 335 kts 313°
2026-04-21 15:20 -34.29438 -58.55489 15694 ft 338 kts 313°
2026-04-21 15:21 -34.27796 -58.57485 16274 ft 340 kts 313°
2026-04-21 15:21 -34.26120 -58.59521 16864 ft 343 kts 313°
2026-04-21 15:21 -34.24433 -58.61572 17463 ft 346 kts 313°
2026-04-21 15:21 -34.22727 -58.63644 18048 ft 348 kts 313°
2026-04-21 15:22 -34.21009 -58.65729 18590 ft 351 kts 313°
2026-04-21 15:22 -34.19280 -58.67824 19115 ft 353 kts 313°
2026-04-21 15:22 -34.17541 -58.69930 19660 ft 355 kts 313°
2026-04-21 15:22 -34.15789 -58.72046 20202 ft 357 kts 313°
2026-04-21 15:23 -34.14027 -58.74173 20705 ft 359 kts 313°
2026-04-21 15:23 -34.12261 -58.76305 21245 ft 360 kts 312°
2026-04-21 15:23 -34.10485 -58.78450 21786 ft 361 kts 312°
2026-04-21 15:23 -34.08709 -58.80598 22290 ft 363 kts 312°
2026-04-21 15:24 -34.06917 -58.82764 22790 ft 365 kts 311°
2026-04-21 15:24 -34.05122 -58.84929 23284 ft 366 kts 311°
2026-04-21 15:24 -34.03317 -58.87100 23742 ft 368 kts 311°
2026-04-21 15:24 -34.01498 -58.89283 24148 ft 369 kts 311°
2026-04-21 15:25 -33.99674 -58.91475 24550 ft 371 kts 311°
2026-04-21 15:25 -33.97833 -58.93666 24951 ft 373 kts 314°
2026-04-21 15:25 -33.95748 -58.95572 25336 ft 380 kts 323°
2026-04-21 15:25 -33.93477 -58.97232 25741 ft 382 kts 323°
2026-04-21 15:26 -33.91199 -58.98890 26125 ft 384 kts 323°
2026-04-21 15:26 -33.88937 -59.00536 26504 ft 386 kts 323°
2026-04-21 15:26 -33.86641 -59.02210 26873 ft 387 kts 323°
2026-04-21 15:26 -33.84332 -59.03894 27256 ft 389 kts 323°
2026-04-21 15:27 -33.82013 -59.05586 27641 ft 391 kts 323°
2026-04-21 15:27 -33.79685 -59.07286 28020 ft 392 kts 323°
2026-04-21 15:27 -33.77345 -59.08993 28359 ft 394 kts 322°
2026-04-21 15:27 -33.74994 -59.10707 28735 ft 396 kts 322°
2026-04-21 15:28 -33.72628 -59.12428 29100 ft 398 kts 322°
2026-04-21 15:28 -33.70254 -59.14154 29446 ft 400 kts 322°
2026-04-21 15:28 -33.67863 -59.15890 29814 ft 402 kts 322°
2026-04-21 15:28 -33.65467 -59.17626 30177 ft 404 kts 322°
2026-04-21 15:29 -33.63067 -59.19364 30598 ft 402 kts 322°
2026-04-21 15:29 -33.60678 -59.21096 31023 ft 400 kts 322°
2026-04-21 15:29 -33.58296 -59.22821 31420 ft 399 kts 322°
2026-04-21 15:29 -33.55923 -59.24539 31836 ft 398 kts 321°
2026-04-21 15:30 -33.53553 -59.26253 32257 ft 397 kts 321°
2026-04-21 15:30 -33.51200 -59.27955 32692 ft 395 kts 321°
2026-04-21 15:30 -33.48847 -59.29655 33134 ft 394 kts 321°
2026-04-21 15:30 -33.46505 -59.31345 33570 ft 393 kts 321°
2026-04-21 15:31 -33.44167 -59.33033 34039 ft 392 kts 320°
2026-04-21 15:31 -33.41833 -59.34717 34435 ft 390 kts 320°
2026-04-21 15:31 -33.39517 -59.36387 34765 ft 388 kts 320°
2026-04-21 15:31 -33.37210 -59.38050 35127 ft 387 kts 320°
2026-04-21 15:32 -33.34907 -59.39709 35465 ft 385 kts 320°
2026-04-21 15:32 -33.32614 -59.41360 35792 ft 384 kts 320°
2026-04-21 15:32 -33.30322 -59.43007 35984 ft 384 kts 320°
2026-04-21 15:32 -33.28025 -59.44661 36034 ft 388 kts 320°
2026-04-21 15:33 -33.23404 -59.47984 36035 ft 391 kts 320°
2026-04-21 15:33 -33.18739 -59.51325 36034 ft 391 kts 320°
2026-04-21 15:34 -33.14076 -59.54664 36034 ft 391 kts 320°
2026-04-21 15:34 -33.09416 -59.57992 36035 ft 391 kts 320°
2026-04-21 15:35 -33.04752 -59.61327 36055 ft 391 kts 320°
2026-04-21 15:35 -33.00091 -59.64659 36025 ft 391 kts 320°
2026-04-21 15:36 -32.95429 -59.67983 36033 ft 390 kts 320°
2026-04-21 15:36 -32.90769 -59.71294 36037 ft 390 kts 320°
2026-04-21 15:37 -32.86101 -59.74607 36043 ft 390 kts 320°
2026-04-21 15:37 -32.82222 -59.77362 36013 ft 390 kts 320°
2026-04-21 15:38 -32.76812 -59.81211 36027 ft 390 kts 319°
2026-04-21 15:38 -32.72145 -59.84514 36037 ft 390 kts 320°
2026-04-21 15:39 -32.68238 -59.87270 36046 ft 390 kts 320°
2026-04-21 15:39 -32.62815 -59.91096 36069 ft 390 kts 320°
2026-04-21 15:40 -32.58940 -59.93834 36071 ft 389 kts 320°
2026-04-21 15:40 -32.54288 -59.97121 36071 ft 389 kts 320°
2026-04-21 15:41 -32.49637 -60.00405 36070 ft 389 kts 320°
2026-04-21 15:41 -32.44979 -60.03684 36068 ft 389 kts 320°
2026-04-21 15:42 -32.40320 -60.06954 36049 ft 389 kts 320°
2026-04-21 15:42 -32.35669 -60.10214 36057 ft 389 kts 320°
2026-04-21 15:43 -32.31012 -60.13483 36065 ft 389 kts 319°
2026-04-21 15:43 -32.26362 -60.16755 36070 ft 389 kts 319°
2026-04-21 15:44 -32.21713 -60.20020 36068 ft 389 kts 320°
2026-04-21 15:44 -32.17057 -60.23271 36072 ft 388 kts 320°
2026-04-21 15:45 -32.12403 -60.26510 36082 ft 388 kts 320°
2026-04-21 15:45 -32.07758 -60.29753 36077 ft 388 kts 319°
2026-04-21 15:46 -32.03142 -60.32976 36081 ft 388 kts 320°
2026-04-21 15:46 -31.98491 -60.36210 36054 ft 389 kts 319°
2026-04-21 15:47 -31.93830 -60.39444 36061 ft 389 kts 319°
2026-04-21 15:47 -31.89168 -60.42677 36071 ft 389 kts 319°
2026-04-21 15:48 -31.84503 -60.45919 36081 ft 389 kts 319°
2026-04-21 15:48 -31.79844 -60.49165 36072 ft 388 kts 319°
2026-04-21 15:49 -31.75338 -60.52555 36081 ft 386 kts 317°
2026-04-21 15:49 -31.70868 -60.56032 36087 ft 386 kts 317°
2026-04-21 15:50 -31.66379 -60.59489 36089 ft 386 kts 317°
2026-04-21 15:50 -31.61878 -60.62920 36069 ft 386 kts 317°
2026-04-21 15:51 -31.57367 -60.66343 36080 ft 386 kts 317°
2026-04-21 15:51 -31.52859 -60.69763 36090 ft 386 kts 317°
2026-04-21 15:52 -31.48350 -60.73176 36093 ft 386 kts 317°
2026-04-21 15:52 -31.43842 -60.76588 36112 ft 386 kts 317°
2026-04-21 15:53 -31.39335 -60.80000 36088 ft 385 kts 317°
2026-04-21 15:53 -31.34837 -60.83402 36099 ft 385 kts 317°
2026-04-21 15:54 -31.30340 -60.86794 36104 ft 385 kts 317°
2026-04-21 15:54 -31.25839 -60.90179 36110 ft 384 kts 317°
2026-04-21 15:55 -31.21348 -60.93560 36080 ft 384 kts 317°
2026-04-21 15:55 -31.16883 -60.96913 36096 ft 384 kts 317°
2026-04-21 15:56 -31.12402 -61.00282 36108 ft 383 kts 317°
2026-04-21 15:56 -31.07918 -61.03648 36114 ft 383 kts 317°
2026-04-21 15:57 -31.03432 -61.07014 36125 ft 383 kts 317°
2026-04-21 15:57 -30.98952 -61.10368 36104 ft 383 kts 317°
2026-04-21 15:58 -30.94462 -61.13711 36116 ft 383 kts 317°
2026-04-21 15:58 -30.89978 -61.17047 36119 ft 383 kts 317°
2026-04-21 15:59 -30.85494 -61.20387 36123 ft 383 kts 317°
2026-04-21 15:59 -30.81006 -61.23723 36129 ft 382 kts 317°
2026-04-21 16:00 -30.76523 -61.27056 36099 ft 382 kts 317°
2026-04-21 16:00 -30.72040 -61.30385 36113 ft 383 kts 317°
2026-04-21 16:01 -30.67545 -61.33713 36130 ft 383 kts 318°
2026-04-21 16:01 -30.63089 -61.37005 36128 ft 382 kts 318°
2026-04-21 16:02 -30.58597 -61.40317 36134 ft 382 kts 318°
2026-04-21 16:02 -30.54115 -61.43622 36129 ft 382 kts 318°
2026-04-21 16:03 -30.49639 -61.46929 36130 ft 381 kts 318°
2026-04-21 16:03 -30.45161 -61.50224 36132 ft 381 kts 318°
2026-04-21 16:04 -30.40690 -61.53519 36131 ft 381 kts 317°
2026-04-21 16:04 -30.36216 -61.56822 36107 ft 381 kts 318°
2026-04-21 16:05 -30.31738 -61.60112 36112 ft 381 kts 318°
2026-04-21 16:05 -30.27253 -61.63402 36121 ft 382 kts 318°
2026-04-21 16:06 -30.22798 -61.66664 36116 ft 382 kts 318°
2026-04-21 16:06 -30.18280 -61.69971 36124 ft 381 kts 318°
2026-04-21 16:07 -30.13830 -61.73232 36105 ft 381 kts 318°
2026-04-21 16:07 -30.09347 -61.76503 36103 ft 382 kts 318°
2026-04-21 16:08 -30.02601 -61.81414 36131 ft 382 kts 318°
2026-04-21 16:09 -29.98107 -61.84692 36130 ft 382 kts 318°
2026-04-21 16:09 -29.93614 -61.87966 36094 ft 382 kts 319°
2026-04-21 16:10 -29.89104 -61.91239 36106 ft 383 kts 319°
2026-04-21 16:10 -29.85046 -61.95013 36131 ft 372 kts 309°
2026-04-21 16:11 -29.81303 -61.99122 36133 ft 372 kts 309°
2026-04-21 16:11 -29.77560 -62.03222 36133 ft 372 kts 309°
2026-04-21 16:12 -29.74446 -62.06628 36139 ft 371 kts 309°
2026-04-21 16:12 -29.70065 -62.11410 36114 ft 372 kts 309°
2026-04-21 16:13 -29.66309 -62.15511 36118 ft 373 kts 309°
2026-04-21 16:13 -29.62545 -62.19609 36126 ft 373 kts 309°
2026-04-21 16:14 -29.58771 -62.23703 36157 ft 372 kts 309°
2026-04-21 16:14 -29.55013 -62.27787 36148 ft 372 kts 309°
2026-04-21 16:15 -29.51262 -62.31862 36128 ft 371 kts 309°
2026-04-21 16:15 -29.47499 -62.35939 36129 ft 372 kts 309°
2026-04-21 16:16 -29.43735 -62.40016 36132 ft 372 kts 309°
2026-04-21 16:16 -29.39968 -62.44092 36141 ft 372 kts 309°
2026-04-21 16:17 -29.36228 -62.48136 36141 ft 372 kts 309°
2026-04-21 16:17 -29.32459 -62.52207 36111 ft 372 kts 309°
2026-04-21 16:18 -29.28684 -62.56269 36130 ft 373 kts 310°
2026-04-21 16:18 -29.24906 -62.60338 36136 ft 373 kts 310°
2026-04-21 16:19 -29.21135 -62.64406 36137 ft 373 kts 310°
2026-04-21 16:19 -29.17355 -62.68470 36144 ft 373 kts 310°
2026-04-21 16:20 -29.13573 -62.72535 36142 ft 373 kts 310°
2026-04-21 16:20 -29.09792 -62.76588 36115 ft 373 kts 310°
2026-04-21 16:21 -29.06002 -62.80651 36122 ft 374 kts 310°
2026-04-21 16:21 -29.02203 -62.84714 36138 ft 374 kts 310°
2026-04-21 16:22 -28.98400 -62.88771 36153 ft 374 kts 310°
2026-04-21 16:22 -28.94605 -62.92828 36149 ft 374 kts 310°
2026-04-21 16:23 -28.90811 -62.96881 36127 ft 373 kts 310°
2026-04-21 16:23 -28.87040 -63.00902 36133 ft 374 kts 310°
2026-04-21 16:24 -28.83235 -63.04950 36127 ft 374 kts 310°
2026-04-21 16:24 -28.79424 -63.09001 36133 ft 374 kts 310°
2026-04-21 16:25 -28.75616 -63.13054 36142 ft 375 kts 310°
2026-04-21 16:25 -28.71799 -63.17102 36148 ft 375 kts 310°
2026-04-21 16:26 -28.67987 -63.21141 36128 ft 374 kts 310°
2026-04-21 16:26 -28.64172 -63.25181 36133 ft 375 kts 310°
2026-04-21 16:27 -28.60352 -63.29227 36140 ft 375 kts 310°
2026-04-21 16:27 -28.56529 -63.33270 36144 ft 375 kts 310°
2026-04-21 16:28 -28.52700 -63.37309 36149 ft 376 kts 310°
2026-04-21 16:28 -28.48868 -63.41347 36152 ft 376 kts 310°
2026-04-21 16:29 -28.45676 -63.44699 36155 ft 376 kts 311°
2026-04-21 16:29 -28.41845 -63.48732 36153 ft 375 kts 311°
2026-04-21 16:30 -28.38020 -63.52766 36159 ft 375 kts 311°
2026-04-21 16:30 -28.34194 -63.56781 36154 ft 375 kts 311°
2026-04-21 16:31 -28.30368 -63.60796 36154 ft 374 kts 311°
2026-04-21 16:31 -28.26547 -63.64805 36148 ft 374 kts 311°
2026-04-21 16:32 -28.22727 -63.68819 36152 ft 374 kts 311°
2026-04-21 16:32 -28.18894 -63.72829 36152 ft 375 kts 311°
2026-04-21 16:33 -28.15059 -63.76830 36155 ft 375 kts 311°
2026-04-21 16:33 -28.11227 -63.80825 36156 ft 374 kts 311°
2026-04-21 16:34 -28.07396 -63.84816 36151 ft 374 kts 311°
2026-04-21 16:34 -28.03595 -63.88785 36130 ft 374 kts 311°
2026-04-21 16:35 -27.99779 -63.92788 36127 ft 375 kts 311°
2026-04-21 16:35 -27.95948 -63.96791 36130 ft 375 kts 311°
2026-04-21 16:36 -27.92113 -64.00797 36155 ft 376 kts 311°
2026-04-21 16:36 -27.88273 -64.04810 36144 ft 376 kts 311°
2026-04-21 16:37 -27.84434 -64.08814 36160 ft 376 kts 311°
2026-04-21 16:37 -27.80594 -64.12812 36137 ft 375 kts 311°
2026-04-21 16:37 -27.78666 -64.14818 35681 ft 379 kts 311°
2026-04-21 16:38 -27.76721 -64.16843 35006 ft 381 kts 311°
2026-04-21 16:38 -27.74763 -64.18877 34355 ft 383 kts 311°
2026-04-21 16:38 -27.72801 -64.20914 33787 ft 382 kts 311°
2026-04-21 16:38 -27.70859 -64.22924 33360 ft 377 kts 311°
2026-04-21 16:39 -27.68935 -64.24913 32906 ft 372 kts 311°
2026-04-21 16:39 -27.67039 -64.26874 32482 ft 368 kts 311°
2026-04-21 16:39 -27.65164 -64.28818 32042 ft 364 kts 311°
2026-04-21 16:39 -27.63310 -64.30741 31610 ft 360 kts 311°
2026-04-21 16:40 -27.61476 -64.32642 31178 ft 357 kts 311°
2026-04-21 16:40 -27.59661 -64.34527 30732 ft 354 kts 311°
2026-04-21 16:40 -27.57853 -64.36404 30327 ft 352 kts 311°
2026-04-21 16:40 -27.56055 -64.38267 29853 ft 350 kts 311°
2026-04-21 16:41 -27.54290 -64.40093 29433 ft 347 kts 311°
2026-04-21 16:41 -27.52521 -64.41923 29016 ft 344 kts 311°
2026-04-21 16:41 -27.50759 -64.43741 28601 ft 342 kts 311°
2026-04-21 16:41 -27.49008 -64.45548 28196 ft 340 kts 311°
2026-04-21 16:42 -27.47269 -64.47339 27796 ft 338 kts 312°
2026-04-21 16:42 -27.45538 -64.49123 27403 ft 336 kts 312°
2026-04-21 16:42 -27.43812 -64.50903 27018 ft 335 kts 312°
2026-04-21 16:42 -27.42095 -64.52674 26637 ft 335 kts 312°
2026-04-21 16:43 -27.40382 -64.54442 26261 ft 334 kts 312°
2026-04-21 16:43 -27.38670 -64.56204 25898 ft 334 kts 312°
2026-04-21 16:43 -27.36959 -64.57962 25520 ft 333 kts 312°
2026-04-21 16:43 -27.35253 -64.59714 25125 ft 332 kts 312°
2026-04-21 16:44 -27.33456 -64.61355 24695 ft 334 kts 318°
2026-04-21 16:44 -27.31587 -64.62906 24270 ft 334 kts 318°
2026-04-21 16:44 -27.29720 -64.64454 23835 ft 334 kts 318°
2026-04-21 16:44 -27.27850 -64.66005 23345 ft 334 kts 318°
2026-04-21 16:45 -27.25986 -64.67551 22882 ft 333 kts 319°
2026-04-21 16:45 -27.24126 -64.69091 22435 ft 332 kts 319°
2026-04-21 16:45 -27.22263 -64.70632 21957 ft 332 kts 319°
2026-04-21 16:45 -27.20409 -64.72167 21491 ft 331 kts 319°
2026-04-21 16:46 -27.18448 -64.73554 21011 ft 337 kts 329°
2026-04-21 16:46 -27.16229 -64.74463 20517 ft 344 kts 341°
2026-04-21 16:46 -27.13876 -64.75017 20004 ft 346 kts 343°
2026-04-21 16:46 -27.11510 -64.75564 19485 ft 348 kts 343°
2026-04-21 16:47 -27.09132 -64.76114 18976 ft 350 kts 344°
2026-04-21 16:47 -27.06737 -64.76669 18453 ft 353 kts 344°
2026-04-21 16:47 -27.04322 -64.77225 17867 ft 354 kts 345°
2026-04-21 16:47 -27.01910 -64.77777 17363 ft 354 kts 345°
2026-04-21 16:48 -26.99495 -64.78333 16831 ft 354 kts 345°
2026-04-21 16:48 -26.97087 -64.78889 16309 ft 353 kts 345°
2026-04-21 16:48 -26.94679 -64.79446 15786 ft 353 kts 346°
2026-04-21 16:48 -26.92271 -64.80004 15279 ft 353 kts 346°
2026-04-21 16:49 -26.89869 -64.80561 14751 ft 352 kts 346°
2026-04-21 16:49 -26.87504 -64.81107 14235 ft 341 kts 347°
2026-04-21 16:49 -26.85221 -64.81633 13726 ft 329 kts 347°
2026-04-21 16:49 -26.83014 -64.82141 13231 ft 318 kts 347°
2026-04-21 16:50 -26.80887 -64.82632 12775 ft 307 kts 347°
2026-04-21 16:50 -26.78858 -64.83100 12343 ft 297 kts 347°
2026-04-21 16:50 -26.76849 -64.83563 11920 ft 294 kts 347°
2026-04-21 16:50 -26.74834 -64.84028 11497 ft 297 kts 347°
2026-04-21 16:51 -26.72802 -64.84499 11071 ft 299 kts 347°
2026-04-21 16:51 -26.70764 -64.84969 10625 ft 300 kts 347°
2026-04-21 16:51 -26.68717 -64.85439 10341 ft 297 kts 347°
2026-04-21 16:51 -26.66728 -64.85896 10191 ft 287 kts 347°
2026-04-21 16:52 -26.64876 -64.86633 10052 ft 279 kts 330°
2026-04-21 16:52 -26.63370 -64.87927 9955 ft 270 kts 313°
2026-04-21 16:52 -26.62329 -64.89625 9805 ft 263 kts 296°
2026-04-21 16:52 -26.61805 -64.91553 9674 ft 258 kts 279°
2026-04-21 16:53 -26.61656 -64.93546 9421 ft 256 kts 276°
2026-04-21 16:53 -26.61519 -64.95530 9137 ft 255 kts 277°
2026-04-21 16:53 -26.61380 -64.97507 8817 ft 256 kts 277°
2026-04-21 16:53 -26.61232 -64.99527 8135 ft 265 kts 277°
2026-04-21 16:54 -26.61142 -65.01601 7451 ft 270 kts 266°
2026-04-21 16:54 -26.61804 -65.03528 7083 ft 265 kts 234°
2026-04-21 16:54 -26.63203 -65.04813 6632 ft 261 kts 207°
2026-04-21 16:54 -26.64847 -65.05664 6105 ft 259 kts 205°
2026-04-21 16:55 -26.66478 -65.06488 5656 ft 255 kts 204°
2026-04-21 16:55 -26.68070 -65.07284 5381 ft 242 kts 202°
2026-04-21 16:55 -26.69621 -65.07703 5363 ft 218 kts 188°
2026-04-21 16:55 -26.71070 -65.07966 5364 ft 208 kts 189°
2026-04-21 16:56 -26.72524 -65.08243 5549 ft 225 kts 189°
2026-04-21 16:56 -26.74140 -65.08546 5997 ft 245 kts 189°
2026-04-21 16:56 -26.75781 -65.08852 6005 ft 232 kts 189°
2026-04-21 16:56 -26.77369 -65.08841 6014 ft 229 kts 165°
2026-04-21 16:57 -26.78780 -65.08073 6013 ft 227 kts 141°
2026-04-21 16:57 -26.80043 -65.06985 6012 ft 229 kts 142°
2026-04-21 16:57 -26.81302 -65.05899 6012 ft 228 kts 141°
2026-04-21 16:57 -26.82563 -65.04812 6013 ft 229 kts 141°
2026-04-21 16:58 -26.83823 -65.03729 6038 ft 228 kts 141°
2026-04-21 16:58 -26.85079 -65.02640 6064 ft 228 kts 141°
2026-04-21 16:58 -26.86336 -65.01550 6089 ft 228 kts 141°
2026-04-21 16:58 -26.87570 -65.00473 6110 ft 228 kts 141°
2026-04-21 16:59 -26.88826 -64.99380 6127 ft 228 kts 141°
2026-04-21 16:59 -26.90080 -64.98290 6155 ft 230 kts 141°
2026-04-21 16:59 -26.91360 -64.97180 6178 ft 230 kts 141°
2026-04-21 16:59 -26.92630 -64.96133 6194 ft 231 kts 149°
2026-04-21 17:00 -26.94164 -64.95612 6213 ft 234 kts 178°
2026-04-21 17:00 -26.95742 -64.95976 6231 ft 234 kts 208°
2026-04-21 17:00 -26.96627 -64.96695 6233 ft 233 kts 229°
2026-04-21 17:00 -26.97950 -64.98584 6069 ft 231 kts 234°
2026-04-21 17:01 -26.98917 -65.00012 5806 ft 229 kts 233°
2026-04-21 17:01 -26.99877 -65.01428 5551 ft 228 kts 233°
2026-04-21 17:01 -27.00831 -65.02833 5315 ft 225 kts 232°
2026-04-21 17:01 -27.01772 -65.04218 5063 ft 223 kts 232°
2026-04-21 17:02 -27.02707 -65.05594 4818 ft 220 kts 232°
2026-04-21 17:02 -27.03594 -65.06989 4541 ft 219 kts 241°
2026-04-21 17:02 -27.04049 -65.08613 4277 ft 220 kts 264°
2026-04-21 17:02 -27.03857 -65.10284 4088 ft 216 kts 291°
2026-04-21 17:03 -27.03095 -65.11701 3962 ft 209 kts 309°
2026-04-21 17:03 -27.02026 -65.12753 3846 ft 200 kts 329°
2026-04-21 17:03 -27.00796 -65.13319 3754 ft 181 kts 348°
2026-04-21 17:03 -26.99625 -65.13437 3677 ft 162 kts
2026-04-21 17:04 -26.98536 -65.13263 3612 ft 155 kts 12°
2026-04-21 17:04 -26.97478 -65.13060 3600 ft 154 kts 12°
2026-04-21 17:04 -26.96427 -65.12858 3585 ft 153 kts 12°
2026-04-21 17:04 -26.95377 -65.12656 3462 ft 152 kts 12°
2026-04-21 17:05 -26.94333 -65.12455 3284 ft 152 kts 11°
2026-04-21 17:05 -26.93295 -65.12255 3101 ft 151 kts 12°
2026-04-21 17:05 -26.92260 -65.12056 2900 ft 150 kts 10°
2026-04-21 17:05 -26.91247 -65.11861 2695 ft 149 kts
2026-04-21 17:06 -26.90200 -65.11659 2488 ft 151 kts 10°
2026-04-21 17:06 -26.89169 -65.11461 2257 ft 151 kts 10°
2026-04-21 17:06 -26.88141 -65.11264 2048 ft 149 kts
2026-04-21 17:06 -26.87126 -65.11071 1834 ft 146 kts
2026-04-21 17:07 -26.86461 -65.10966 1733 ft 147 kts
2026-04-21 17:07 -26.85135 -65.10692 1499 ft 141 kts 11°
2026-04-21 17:07 -26.84317 -65.10524 1488 ft 81 kts 10°
2026-04-21 17:07 -26.83889 -65.10439 1486 ft 54 kts 10°
2026-04-21 17:08 -26.83675 -65.10403 1481 ft 27 kts
2026-04-21 17:08 -26.83588 -65.10385 1487 ft 10 kts
2026-04-21 17:08 -26.83527 -65.10385 1485 ft 8 kts 353°
2026-04-21 17:08 -26.83476 -65.10399 1486 ft 7 kts 346°
2026-04-21 17:09 -26.83354 -65.10444 1484 ft 12 kts 327°
2026-04-21 17:09 -26.83326 -65.10528 1493 ft 13 kts 256°
2026-04-21 17:09 -26.83384 -65.10599 1490 ft 13 kts 219°
2026-04-21 17:10 -26.83448 -65.10659 1480 ft 10 kts 218°
2026-04-21 17:10 -26.83507 -65.10690 1490 ft 9 kts 192°
2026-04-21 17:10 -26.83531 -65.10697 1484 ft 3 kts 211°
2026-04-21 17:10 -26.83535 -65.10718 1479 ft 4 kts 268°
2026-04-21 17:11 -26.83530 -65.10740 1483 ft 3 kts 283°
2026-04-21 17:11 -26.83529 -65.10750 1488 ft 0 kts 280°